Location: Beaurecueil
(43.5122°N, 5.5450°E)
Time: 12:34:16
(UTC+00:00)

CENTAUR R/B - Pass Details

Date: 18 September 2020
Orbit: 753 x 1435 km, 63.5° (Epoch: 26 October)

Event Time Altitude Azimuth Distance (km) Brightness Sun altitude
Rises 19:24:16 0° 324° (NW) 4,096 6.7 -18.9°
Reaches altitude 10° 19:27:01 10° 330° (NNW) 3,219 5.9 -19.4°
Maximum altitude 19:34:44 50° 44° (NE) 1,682 3.5 -20.7°
Enters shadow 19:38:32 32° 100° (E) 2,212 3.8 -21.3°
